Aérodrome :
LOGIN :

S'inscrire | Disclaimer

   EN    FR    IT 

 










Légende :    VFR   VFR Marginal   IFR   IFR Intensif   IFR Très Intensif
Visi : 
Plafond : 
>= 8 km
>= 3000ft
5 à 8 km
1000 à 3000 ft
1500m à 5 km
500 à 1000 ft
800 à 1500m
200 à 500 ft
< 800m
< 200 ft
Symboles :   Orages  Brouillard  Fortes neiges  Fortes précipitations  Vent > 20 kt
SIGMETs :   Divers  Orages  Givrage  Turbulence  Onde Orograph.  Cendres Volcan.







- Altitude de l'aérodrome : 1084 ft
- Code IATA : EPL
- Voir les cartes d'approche


LFSG - Épinal-Mirecourt

DERNIER METAR :
  • 190400Z AUTO 18008KT 9999 RA OVC007 04/03 Q1018

METARs EXPIRÉS :
  • 190330Z AUTO 18007KT 9999 -RA OVC008 04/03 Q1018
  • 190300Z AUTO 20005KT 9999 -RA OVC009/// ///TCU 04/03 Q1018
  • 190230Z AUTO 22007KT 9999 RA BKN010/// OVC014/// ///TCU 04/03 Q1019
  • 190200Z AUTO 21009KT 9999 RA BKN011 OVC016 04/03 Q1019

TAF N/A
Pas de NOTAMs connus pour ce terrain.



MET'MAP, la Météo Aéronautique d'un coup d'oeil ! - Copyright ORBIFLY Décembre 2007 - Disclaimer

ORBIFLY MET'MAP TEAM :

Programmation & Développement : Alexandra Zaïnal
Conception & Développement : Baudouin d'Aumeries
Co-Programmation & Développement : Marc-Olivier Méhu
Soutien technique & logistique : Manuel Goepfert

Contact : metmap@orbifly.com




SOURCES & CREDITS :

   NOAA